Location: *
(37.9449°S, 57.6864°E)
Time: 13:31:28
(UTC+00:00)

Daily predictions for brighter satellites

Satellite Brightness Start Highest point End
(mag) Time Altitude Azimuth Time Altitude Azimuth Time Altitude Azimuth
Cosmos 1331 Rocket 4.5 15:33:40 10° SSW 15:38:53 65° WNW 15:44:04 10° N
Meteor 1-25 Rocket 4.4 15:33:55 10° NNE 15:39:18 52° E 15:44:44 10° SSE
SME Rocket 3.9 15:34:53 10° SSE 15:39:23 34° E 15:42:57 10° NNE
Cosmos 1666 4.0 15:36:48 10° NNW 15:40:15 43° W 15:43:45 10° S
Meteor 1-27 Rocket 4.1 15:35:00 10° S 15:40:49 54° ESE 15:46:37 10° NNE
Cosmos 1461 4.0 15:38:48 10° NNE 15:41:38 20° ENE 15:44:30 10° ESE
CZ-4B R/B 4.2 15:41:36 10° SE 15:46:16 27° E 15:50:57 10° NNE
ATLAS 5 CENTAUR R/B 3.2 15:42:16 10° N 15:49:23 45° ENE 15:56:21 10° SE
YAOGAN 1 2.6 15:46:28 10° SSE 15:50:53 87° ENE 15:55:12 10° NNW
BlueWalker 3 2.0 15:47:19 10° SW 15:51:15 78° SE 15:55:06 10° NE
Lacrosse 5 rocket 3.1 15:49:05 10° WNW 15:52:27 32° SW 15:55:45 10° SSE
Okean O Rocket 3.0 15:53:29 10° SE 15:56:54 21° E 16:00:16 10° NE
Cosmos 2369 Rocket 4.2 15:57:21 10° SSE 16:00:04 13° SE 16:02:45 10° ESE
USA 186 3.4 15:58:50 10° SE 16:01:04 18° E 16:02:38 13° NE
Cosmos 1943 Rocket 2.5 15:55:49 10° SSW 16:01:24 54° ESE 16:06:41 11° NE
OAO 3 Rocket 3.7 16:00:55 10° NW 16:05:11 37° NNE 16:09:30 10° E
Cosmos 614 Rocket 4.1 16:00:50 10° NNW 16:05:58 82° WSW 16:11:08 10° SSE
Okean 1 3.3 16:02:09 10° S 16:06:08 64° E 16:10:04 10° NNE
ADEOS 4.5 16:02:43 10° S 16:07:51 53° WSW 16:12:56 10° NNW
Spot 1 4.5 16:06:04 10° N 16:10:41 69° WNW 16:15:06 10° SSW
Cosmos 2278 Rocket 2.9 16:12:00 10° SSW 16:17:33 52° WNW 16:23:03 10° N
Cosmos 2237 Rocket 4.1 16:18:00 10° NW 16:23:06 34° WSW 16:28:16 10° S
Cosmos 1328 Rocket 4.0 16:19:33 10° S 16:23:46 44° E 16:26:34 19° NE
MINOTAUR 4 R/B 3.9 16:21:01 13° N 16:23:53 79° WNW 16:27:12 10° SSW
Resurs 1-3 3.6 16:19:58 10° SSE 16:24:25 67° ENE 16:28:46 10° N
Cosmos 1151 Rocket 3.2 16:21:25 10° SSW 16:25:49 73° W 16:30:06 10° N
GENESIS II 4.5 16:23:23 10° NW 16:26:53 61° WSW 16:30:25 10° SSE
BREEZE-M TANK 4.0 16:24:16 10° WSW 16:27:43 38° SSE 16:33:22 10° E
MOS 1-B 4.4 16:22:48 10° SSE 16:28:37 58° ENE 16:34:20 10° N
CZ-4C R/B 3.0 16:25:22 10° SSW 16:30:05 31° SE 16:32:55 16° E
Resurs 01 Rocket 2.5 16:28:05 10° SSE 16:32:05 31° E 16:34:05 22° NE
Cosmos 1766 Rocket 3.5 16:28:34 10° N 16:32:55 87° E 16:37:20 10° S
Landsat 4 3.9 16:31:28 10° SSE 16:35:00 44° E 16:36:51 23° NNE
Cosmos 1271 Rocket 3.0 16:32:51 19° NNE 16:35:22 48° E 16:39:08 10° SSE
BREEZE-M DEB (TANK) 1.9 16:30:25 10° SW 16:35:33 78° SSE 16:36:39 31° ENE
Meteor 1-5 Rocket 4.3 16:30:03 10° N 16:36:01 80° E 16:42:04 10° SSE
Okean-O 3.7 16:33:06 10° SE 16:36:49 25° E 16:37:55 23° ENE
Cosmos 1140 Rocket 3.8 16:34:06 13° N 16:38:20 43° ENE 16:43:13 10° SSE
CZ-4 R/B 2.0 16:35:32 10° S 16:39:25 56° WSW 16:43:19 10° NNW
Meteor 2-4 Rocket 3.7 16:33:50 10° S 16:39:30 64° E 16:43:14 21° NNE
Cosmos 1408 Rocket 4.4 16:38:47 25° NE 16:40:19 32° E 16:44:14 10° SSE
Cosmos 2251 Rocket 4.1 16:39:10 19° NNE 16:42:24 37° E 16:47:21 10° SE
S3M 4.1 16:44:49 17° NNE 16:49:41 58° E 16:55:58 10° SSE
SL-08 R/B 4.4 16:44:10 10° S 16:50:24 85° E 16:55:08 18° N
Meteor 1-14 Rocket 4.4 16:47:33 20° NNE 16:51:17 53° E 16:56:58 10° SSE
Cosmos 1743 3.2 16:50:39 34° ENE 16:51:27 39° E 16:55:02 10° SSE
SJ-6B 4.0 16:49:14 10° S 16:52:49 40° WSW 16:56:17 10° NW
Cosmos 1553 Rocket 4.2 16:49:27 10° NNW 16:55:34 70° W 17:01:43 10° S
GOES 2 Rocket 4.2 16:52:46 10° NW 16:55:51 23° N 16:55:51 23° N
Cosmos 1992 Rocket 4.5 16:52:41 10° SSW 16:57:51 57° WNW 17:01:25 20° N
Meteor 1-18 Rocket 4.2 16:55:26 10° S 17:01:11 89° WNW 17:04:38 25° N
Atlas Centaur 2 3.2 16:55:39 10° NW 17:01:15 27° NNE 17:01:37 27° NNE
Cosmos 407 Rocket 3.6 17:00:47 26° N 17:03:28 54° ENE 17:08:32 10° SSE
Cosmos 1536 4.0 17:04:25 26° E 17:04:25 26° E 17:07:27 10° SSE
Okean 3 Rocket 3.9 17:00:27 14° NNW 17:04:17 71° W 17:08:53 10° S
CSL-04 Rocket 3.6 16:58:53 10° SSE 17:04:25 83° ENE 17:08:55 16° N
SPOT 1/Viking Rocket 3.6 16:59:24 10° S 17:04:36 79° WSW 17:09:34 11° NNW
NOSS 3-2 (A) 3.2 16:58:28 10° SSW 17:04:40 80° ESE 17:07:08 34° NE
Cosmos 1743 Rocket 4.2 17:09:03 36° ENE 17:09:24 36° E 17:13:26 10° SSE
Cosmos 1656 Rocket 3.9 17:04:34 10° SSW 17:09:57 52° ESE 17:11:58 34° ENE
SL-16 R/B 3.4 17:08:53 10° NW 17:14:15 42° WSW 17:19:40 10° S
IRS-1C Rocket 4.4 17:15:01 10° SSE 17:20:08 46° E 17:21:14 41° NE
BREEZE-M DEB (TANK) 3.8 17:16:33 10° WSW 17:20:28 23° NW 17:21:02 22° NW
ADEOS Rocket 3.6 17:14:39 10° S 17:21:26 63° WSW 17:27:28 10° NNW
GEOS 3 Rocket 3.8 17:20:07 38° ENE 17:21:55 60° SE 17:26:55 10° SSW
OAO 1 Rocket 4.4 17:17:42 10° W 17:23:01 65° N 17:24:38 43° ENE
Cosmos 1745 Rocket 4.0 17:18:12 10° S 17:24:39 84° W 17:27:58 31° N
Cosmos 807 4.3 17:22:44 10° S 17:25:50 72° SSW 17:25:50 72° SSW
Iridium 4 Rocket 4.0 17:24:51 40° NE 17:26:42 56° E 17:32:22 10° S
CENTAUR R/B 2.5 17:22:19 10° SW 17:27:17 46° WNW 17:28:50 34° NNW
Cosmos 1190 Rocket 4.2 17:27:32 46° NE 17:28:24 51° ENE 17:33:29 10° SSE
BlueWalker 3 4.5 17:27:48 10° WNW 17:29:06 11° WNW 17:29:40 11° NW
CARTOSAT-1 3.7 17:25:44 10° S 17:30:05 70° WSW 17:31:48 35° NNW
Cosmos 2315 Rocket 3.9 17:28:12 33° N 17:31:15 79° E 17:37:35 10° S
Cosmos 1515 Rocket 3.8 17:27:21 10° SSW 17:31:43 64° W 17:32:53 45° NNW
Cosmos 1943 3.1 17:29:19 28° NNW 17:32:25 79° ENE 17:38:11 10° SSE
MOS 1 4.3 17:27:04 10° SSE 17:32:45 63° ENE 17:34:25 44° NNE
Okean O Rocket 3.3 17:29:14 10° S 17:33:13 32° WSW 17:37:07 10° NW
ATLAS 5 CENTAUR R/B 4.0 17:26:39 10° WNW 17:33:51 44° SW 17:40:40 10° SSE
Terra 3.4 17:31:27 10° SE 17:34:05 21° ESE 17:34:05 21° ESE
Cosmos 1500 Rocket 3.6 17:34:48 51° NNW 17:35:55 83° W 17:40:27 10° S
Cosmos 1674 4.3 17:37:54 10° SSE 17:40:04 23° SE 17:40:04 23° SE
Cosmos 2228 Rocket 4.3 17:37:58 10° SSE 17:41:52 31° ESE 17:41:52 31° ESE
Cosmos 44 3.9 17:43:27 36° ESE 17:43:27 36° ESE 17:46:19 10° SE
Aureole 3 4.2 17:37:59 10° S 17:42:24 49° E 17:42:48 48° E
Cosmos 1943 Rocket 4.3 17:40:46 10° WSW 17:44:38 19° W 17:48:13 11° NW
Cosmos 2369 Rocket 2.1 17:39:12 10° SSW 17:44:54 90° ESE 17:46:14 55° NNE
Meteor 1-11 Rocket 3.6 17:43:42 52° NNE 17:45:01 73° E 17:50:41 10° SSE
OAO 3 Rocket 3.4 17:43:37 10° WNW 17:47:26 52° NW 17:47:26 52° NW
ERS-1 Rocket 3.7 17:45:01 10° SSE 17:49:14 37° E 17:49:14 37° E
Cosmos 2263 4.2 17:44:19 10° SSW 17:49:59 72° ESE 17:51:04 57° NE
NOSS 3-4 (C) 4.1 17:42:55 10° NNW 17:51:35 90° NE 17:59:54 10° SSE
NOSS 3-4 (A) 4.2 17:42:53 10° NNW 17:51:37 90° NNW 17:59:55 10° SSE
Lacrosse 4 Rocket 3.3 17:59:08 19° SE 17:59:08 19° SE 18:00:28 10° SE
Cosmos 1633 Rocket 4.4 18:00:31 29° ESE 18:00:31 29° ESE 18:03:19 10° SSE
CZ-2C R/B 4.2 17:58:48 49° NW 17:59:33 55° W 18:04:16 10° SSW
Meteor 2-9 Rocket 4.1 18:07:26 68° NE 18:08:02 75° E 18:13:51 10° SSE
Sich 1 3.6 18:07:47 47° W 18:08:08 48° W 18:12:20 10° S
Resurs 01 Rocket 3.9 18:04:52 10° SSW 18:08:19 22° WSW 18:11:35 11° WNW
H-2A R/B 2.4 18:09:15 58° SSE 18:09:15 58° SSE 18:13:00 10° S
Cosmos 1626 3.3 18:05:24 10° SSW 18:07:49 38° SW 18:07:49 38° SW
Cosmos 2074 Rocket 4.2 18:07:24 10° S 18:13:35 54° E 18:14:18 51° ENE
Cosmos 1842 4.1 18:10:43 10° S 18:13:34 47° SSW 18:13:34 47° SSW
MetOp-A 4.3 18:09:36 10° SSE 18:14:25 54° E 18:14:25 54° E
Cosmos 468 Rocket 4.4 18:11:59 10° S 18:17:01 50° ESE 18:17:01 50° ESE
SPOT 3 Rocket 3.7 18:12:45 10° SSE 18:17:29 57° ESE 18:17:29 57° ESE
CZ-4C R/B 3.2 18:14:12 10° SW 18:18:02 26° WNW 18:18:02 26° WNW
Cosmos 676 Rocket 3.9 18:20:21 86° WNW 18:20:27 87° WSW 18:25:43 10° SSE
Spot 2 Rocket 3.6 18:17:38 10° SSE 18:22:20 64° ESE 18:22:20 64° ESE
Meteor 1-13 Rocket 4.3 18:18:10 10° SSW 18:23:43 64° W 18:24:21 59° NW
Cosmos 1666 Rocket 4.0 18:24:49 60° SSE 18:24:49 60° SSE 18:28:33 10° S
Cosmos 1707 4.0 18:21:24 10° S 18:23:53 39° SSW 18:23:53 39° SSW
NOSS 3-2 (C) 3.5 18:20:06 10° SW 18:25:57 52° WNW 18:26:05 52° WNW
Cosmos 1763 Rocket 3.4 18:23:22 10° SSW 18:28:15 81° SSW 18:28:15 81° SSW
Ariane Rocket 2.9 18:26:06 10° SSE 18:31:15 83° WSW 18:31:15 83° WSW
SPOT 5 3.4 18:29:39 10° S 18:33:53 46° WSW 18:33:58 46° WSW
Cosmos 1707 Rocket 4.1 18:29:49 10° S 18:33:30 58° S 18:33:30 58° S
Nadezhda 1 Rocket 4.0 18:35:36 63° ENE 18:35:55 64° E 18:42:20 10° SSE
Cosmos 2184 Rocket 3.9 18:33:31 10° S 18:40:00 85° E 18:40:34 75° NNE
Cosmos 1726 4.4 18:50:49 21° SSW 18:50:49 21° SSW 18:52:18 10° S
In-Cosmos 22 4.3 18:44:12 10° SSW 18:49:24 60° W 18:49:24 60° W
Meteor 1-21 4.3 18:46:05 10° S 18:51:49 72° ESE 18:51:49 72° ESE
Meteor 2-20 Rocket 4.4 18:54:16 78° NE 18:54:33 80° E 19:01:09 10° S
ATLAS 2AS CENTAUR R/B 3.9 19:08:16 26° E 19:08:16 26° E 19:12:13 10° SE
H-2A R/B 4.0 19:02:15 10° SSE 19:04:53 34° SSE 19:04:53 34° SSE
Cosmos 1610 Rocket 4.4 19:00:43 10° S 19:07:07 88° E 19:07:11 87° ENE
Cosmos 540 Rocket 4.1 19:03:00 10° SSW 19:07:07 48° WSW 19:07:07 48° WSW
USA 238 DEB 4.2 19:06:28 10° SW 19:12:08 40° WNW 19:12:08 40° WNW
USA 238 4.2 19:06:28 10° SW 19:12:11 41° WNW 19:12:11 41° WNW
Terra 3.1 19:08:30 10° S 19:12:48 34° WSW 19:12:49 34° WSW
Cosmos 2341 Rocket 4.1 19:21:02 10° S 19:27:16 64° ESE 19:27:16 64° ESE
RESURS DK-1 4.3 19:37:05 29° S 19:37:05 29° S 19:39:17 10° SSE
Lacrosse 4 Rocket 3.8 19:35:07 17° SW 19:35:14 17° SW 19:37:52 10° SSW
Cosmos 962 Rocket 4.4 19:31:16 10° S 19:37:22 83° SSW 19:37:22 83° SSW
Cosmos 2366 rocket 4.2 19:33:37 10° S 19:39:37 61° ESE 19:39:37 61° ESE
ARIANE 5 R/B 4.0 19:37:49 10° S 19:40:31 37° S 19:40:31 37° S
CZ-2D R/B 4.4 19:46:16 14° E 19:47:56 16° ESE 19:51:13 10° SSE
Cosmos 1656 4.0 19:43:51 10° SSW 19:48:30 62° S 19:48:30 62° S
SJ 16-02 3.1 19:55:18 29° SE 19:55:18 29° SE 19:57:34 10° SSE
MOS 1 Rocket 4.0 19:49:20 10° S 19:54:03 61° SSW 19:54:03 61° SSW
USA 215 3.9 19:51:57 31° E 19:54:58 53° SE 20:01:22 10° SW
Cosmos 2218 Rocket 3.9 19:50:00 10° S 19:55:56 78° SE 19:55:56 78° SE
Cosmos 1833 Rocket 2.9 20:02:02 66° S 20:02:02 66° S 20:06:55 10° SSE
Cosmos 968 Rocket 4.3 20:03:55 47° SW 20:03:55 47° SW 20:08:26 10° S
Nadezhda 3 Rocket 4.3 20:15:47 56° E 20:15:47 56° E 20:22:04 10° SSE
GP-B 4.4 20:13:40 10° S 20:16:32 39° S 20:16:32 39° S
Meteor 1-12 Rocket 4.5 20:21:42 66° ESE 20:21:42 66° ESE 20:27:04 10° SSE
Meteor 1-24 Rocket 4.3 20:16:41 10° S 20:21:42 45° ESE 20:21:42 45° ESE
Cosmos 2082 Rocket 3.1 20:24:32 41° E 20:24:32 41° E 20:29:01 10° SE
ATLAS 3B R/B 4.4 20:26:07 10° S 20:31:13 25° SE 20:36:16 10° E
Cosmos 1733 Rocket 4.4 20:44:27 36° SSW 20:44:27 36° SSW 20:47:15 10° S
Cosmos 1821 Rocket 4.0 20:43:14 10° SSW 20:49:26 70° W 20:49:26 70° W
Meteor 2-5 Rocket 3.7 20:46:45 10° S 20:52:09 78° SSW 20:52:09 78° SSW
NOSS 2-3 (E) 4.4 20:45:18 10° SW 20:52:10 71° W 20:52:10 71° W
ATLAS 2AS CENTAUR R/B 3.2 20:55:40 43° W 20:57:03 49° SW 21:03:43 10° SSE
Cosmos 1697 Rocket 3.1 20:58:42 10° SSW 21:03:16 51° WSW 21:03:16 51° WSW
Cosmos 2208 Rocket 4.3 20:59:28 10° SSW 21:04:04 63° SW 21:04:04 63° SW
ADEOS II 2.8 21:04:08 44° E 21:04:54 47° ESE 21:09:59 10° S
Cosmos 1503 Rocket 4.1 21:09:21 71° SE 21:09:21 71° SE 21:14:04 10° SSE
Cosmos 1300 4.4 21:13:41 30° S 21:13:41 30° S 21:15:41 10° S
ALOS 4.5 21:13:19 15° ENE 21:15:36 21° ESE 21:19:04 10° SSE
Resurs 1-4 Rocket 2.1 21:16:52 74° SW 21:16:52 74° SW 21:21:50 10° SSW
IDEFIX/ARIANE 42P 2.6 21:19:59 72° WSW 21:19:59 72° WSW 21:24:54 10° SSW
Cosmos 1354 Rocket 4.0 21:20:01 74° E 21:20:01 74° E 21:25:06 10° SSE
CZ-3 Stage 3 4.4 21:22:12 42° NNE 21:22:12 42° NNE 21:40:57 10° E
COSMOS 2406 3.4 21:23:25 60° W 21:23:41 61° WSW 21:29:26 10° SSE
SL-16 R/B 4.3 21:20:14 10° S 21:24:44 23° SE 21:29:12 10° ENE
CZ-2D R/B 2.2 21:27:33 66° W 21:27:33 66° W 21:32:51 10° SSW
ALOS 2 4.4 21:24:50 10° SSW 21:27:41 22° SW 21:27:41 22° SW
SJ 16-02 3.8 21:32:06 12° WSW 21:32:06 12° WSW 21:33:48 10° SW
Cosmos 1025 Rocket 3.4 21:27:58 10° S 21:32:02 61° SE 21:32:02 61° SE
Cosmos 1980 Rocket 2.1 21:27:36 10° SSW 21:33:19 74° WNW 21:33:20 74° WNW
Helios 1A Rocket 4.1 21:30:07 10° S 21:32:49 36° SSW 21:32:49 36° SSW
Cosmos 2369 3.5 21:28:30 10° SSW 21:34:14 86° WNW 21:34:43 76° N
DNEPR-1 R/B 4.4 21:35:54 44° E 21:35:54 44° E 21:39:26 10° SE
Cosmos 773 Rocket 4.0 21:30:28 10° SSW 21:35:50 77° ESE 21:36:30 66° NE
USA 306 4.2 21:39:10 30° SSE 21:39:10 30° SSE 21:41:17 10° SE
USA 215 3.8 21:39:14 39° W 21:39:14 39° W 21:44:13 10° WSW
NOSS 3-1 (A) 4.3 21:34:09 10° SSW 21:40:08 43° SE 21:45:06 10° ENE
NOSS 3-1 (C) 3.0 21:35:23 10° SSW 21:41:33 89° ESE 21:42:27 64° NE
ISS -2.0 21:48:17 33° SE 21:48:17 33° SE 21:50:19 10° SE
AQUA 3.8 21:49:34 73° W 21:49:34 73° W 21:54:12 10° SSW
FENGYUN 3A 3.7 21:48:18 52° NNE 21:49:40 78° ESE 21:55:08 10° S
Cosmos 371 Rocket 3.4 21:49:50 64° NE 21:50:09 66° ENE 21:55:03 10° SSE
Cosmos 1782 Rocket 3.8 21:50:58 60° SW 21:50:58 60° SW 21:55:05 10° S
Cosmos 1953 3.0 21:53:52 46° SSW 21:53:52 46° SSW 21:56:56 10° S
Meteor 2-10 Rocket 4.4 21:53:28 37° W 21:53:57 38° WSW 21:59:21 10° S
Cosmos 1727 Rocket 4.0 22:00:12 43° N 22:02:24 76° E 22:08:40 10° S
Cosmos 44 Rocket 3.8 22:06:05 42° WSW 22:06:33 43° SW 22:11:01 10° SSE
Genesis I 3.4 22:03:47 10° SSW 22:07:13 64° SSE 22:07:13 64° SSE
Cosmos 2082 Rocket 3.6 22:06:21 23° W 22:07:51 26° WSW 22:12:34 10° S
Cosmos 1315 Rocket 3.3 22:04:32 10° SSW 22:07:46 48° SW 22:07:46 48° SW
Cosmos 2278 3.7 22:04:49 10° SSW 22:10:35 81° ESE 22:14:08 24° NNE
Cosmos 1328 3.8 22:07:14 10° S 22:10:48 67° SW 22:10:48 67° SW
Cosmos 1975 Rocket 3.0 22:10:30 10° SSW 22:14:52 66° W 22:14:56 66° WNW
Tiangong -0.1 22:17:26 22° E 22:17:26 22° E 22:18:52 10° E
Cosmos 1605 Rocket 4.2 22:14:03 10° SSW 22:19:57 50° W 22:21:26 41° NW
CZ-2C R/B 3.1 22:19:03 36° N 22:21:26 84° WNW 22:27:14 10° SSW
ATLAS 3B R/B 2.4 22:16:05 10° SW 22:22:18 64° WNW 22:26:12 24° NNE
SL-8 R/B 3.9 22:24:19 48° N 22:25:07 54° NE 22:29:51 10° ESE
Cosmos 1538 Rocket 4.5 22:23:01 10° SSW 22:28:26 63° ESE 22:33:45 10° NNE
MOZ.5/SAFIR/RUBIN 5/SL-8 3.7 22:25:01 10° SSE 22:29:46 85° ENE 22:31:16 44° N
Cosmos 2173 Rocket 4.2 22:23:39 10° S 22:29:48 66° E 22:35:09 14° NNE
Cosmos 2360 Rocket 3.7 22:25:40 10° S 22:30:55 37° ESE 22:36:07 10° NE
Cosmos 1892 3.9 22:27:54 10° SSW 22:30:15 28° WSW 22:30:15 28° WSW
Lacrosse 5 rocket 2.1 22:28:50 10° SSW 22:32:23 45° SE 22:36:02 10° ENE
Meteor 1-11 4.3 22:27:42 10° S 22:33:36 79° E 22:37:56 18° NNE
Cosmos 1536 Rocket 4.5 22:29:20 10° S 22:33:44 49° E 22:37:18 15° NNE
ATLAS CENTAUR R/B 1.4 22:29:48 10° SSW 22:34:17 89° NW 22:37:29 18° NNE
In-Cosmos 22 Rocket 4.3 22:29:47 10° S 22:35:42 87° E 22:39:48 20° N
CZ-2C R/B 3.0 22:30:59 10° NNE 22:36:00 60° ESE 22:41:06 10° S
SL-27 R/B 4.4 22:37:52 16° NE 22:38:56 19° E 22:41:13 10° SE
Cosmos 2151 Rocket 3.6 22:37:30 40° N 22:39:07 88° E 22:43:43 10° S
Cosmos 2100 Rocket 4.0 22:33:23 10° S 22:39:38 84° E 22:44:46 16° N
Meteor 1-4 Rocket 2.0 22:37:09 10° S 22:40:24 82° W 22:40:26 82° WNW
Cosmos 1867 4.0 22:35:38 10° SW 22:40:34 37° WNW 22:41:07 36° NW
Cosmos 1825 3.2 22:39:21 10° SSW 22:41:55 29° WSW 22:41:55 29° WSW
ADEOS II 3.6 22:45:02 20° W 22:45:02 20° W 22:48:32 10° SW
Thor Agena Rocket 3.6 22:43:02 34° NNW 22:45:01 55° W 22:50:08 10° SSW
USA 305 4.3 22:45:51 11° SSW 22:45:51 11° SSW 22:46:03 10° SSW
USA 307 4.3 22:45:36 12° SSW 22:45:36 12° SSW 22:46:26 10° S
Cosmos 2322 Rocket 2.5 22:41:42 10° SSW 22:47:22 69° ESE 22:52:57 10° NNE
YAOGAN 6 3.5 22:48:27 13° NE 22:51:12 43° ESE 22:54:26 10° S
Cosmos 1455 3.6 22:51:20 23° WSW 22:51:20 23° WSW 22:54:17 10° SSW
Cosmos 1833 4.3 22:49:15 27° NNW 22:52:31 82° ENE 22:58:21 10° SSE
ALOS 2.9 22:51:41 34° WNW 22:52:33 37° W 22:56:56 10° SSW
Cosmos 2333 Rocket 3.4 22:47:54 10° S 22:53:22 44° ESE 22:58:46 10° NE
Cosmos 1725 Rocket 4.4 22:51:58 10° S 22:58:22 67° E 23:04:39 10° NNE
PAYLOAD A 3.7 22:59:20 12° N 23:03:46 81° WNW 23:08:33 10° SSW
SL-16 R/B 2.4 23:03:35 10° SSW 23:09:05 49° WNW 23:14:32 10° N
Cosmos 332 Rocket 4.1 23:07:35 26° NW 23:10:02 51° WSW 23:14:48 10° S
Cosmos 1346 Rocket 3.3 23:08:34 15° N 23:11:38 57° E 23:15:29 10° SSE
Envisat 3.0 23:07:44 11° N 23:12:34 66° W 23:17:41 10° SSW
Cosmos 1455 Rocket 4.3 23:08:32 10° NNE 23:12:38 40° E 23:16:45 10° SSE
METEOR-M 4.3 23:08:50 17° N 23:12:53 51° W 23:18:10 10° SSW
Geosat 4.0 23:08:09 10° NNE 23:13:07 64° WNW 23:18:10 10° SSW
CZ-2C R/B 3.8 23:09:26 10° SSE 23:14:43 44° E 23:20:01 10° N
Sich 1 Rocket 4.5 23:13:49 24° WNW 23:15:46 34° WSW 23:20:01 10° SSW
Cosmos 1441 Rocket 3.5 23:14:21 27° NW 23:16:07 48° WSW 23:19:53 10° S
SL-16 R/B 3.1 23:12:04 10° SSE 23:18:11 55° E 23:24:13 10° N
USA 229 DEB 3.4 23:12:14 10° SSW 23:18:49 88° NW 23:24:52 10° NNE
USA 229 3.4 23:12:18 10° SSW 23:18:52 89° WNW 23:24:56 10° NNE
Cosmos 1242 Rocket 2.8 23:16:30 10° S 23:19:47 60° E 23:23:01 10° NNE
Cosmos 1898 Rocket 3.9 23:18:44 21° NW 23:22:03 50° WSW 23:27:13 10° S
ISS -1.1 23:22:00 10° WSW 23:24:07 15° SSW 23:26:13 10° SSE
Cosmos 923 Rocket 4.1 23:19:01 10° SSW 23:24:19 85° ESE 23:29:35 10° NNE
Cosmos 1459 Rocket 4.4 23:18:38 10° SSW 23:24:45 47° W 23:30:33 11° NNW
IRS-1D 4.2 23:25:03 15° NNW 23:28:50 36° W 23:33:46 10° SSW
H-2A R/B 3.9 23:25:35 10° NE 23:30:13 34° ESE 23:35:01 10° S
NOSS 3-1 (A) 4.1 23:25:53 10° SW 23:30:29 25° WNW 23:34:05 12° NNW
Cosmos 2333 4.4 23:25:12 10° SSW 23:30:53 77° ESE 23:36:32 10° NNE
Cosmos 1937 Rocket 3.7 23:29:47 17° NW 23:33:39 54° WSW 23:38:44 10° S
USA 281 3.3 23:33:16 10° N 23:39:39 53° WNW 23:46:07 10° SSW
USA 32 4.0 23:36:01 10° N 23:41:15 73° W 23:46:34 10° S
Cosmos 1680 Rocket 3.6 23:36:10 10° SSW 23:41:33 89° ESE 23:46:53 10° NNE
Meteor 1-28 Rocket 3.2 23:38:35 10° S 23:42:13 59° WSW 23:45:34 11° NNW
FAST Rocket 4.4 23:38:50 10° S 23:42:56 84° W 23:45:45 10° N
Meteor 2-15 4.4 23:40:45 10° SSW 23:46:52 72° W 23:52:56 10° N
Meteor 2-8 Rocket 4.5 23:43:16 10° S 23:49:28 88° W 23:55:33 10° N
Cosmos 2112 Rocket 4.1 23:46:59 10° SSW 23:52:23 86° WNW 23:57:44 10° NNE
Tiangong -1.7 23:49:31 10° W 23:52:36 57° SSW 23:55:45 10° ESE
Cosmos 921 Rocket 2.9 23:49:00 10° SSW 23:53:14 77° WNW 23:57:24 10° N
Cosmos 2016 Rocket 4.5 23:47:24 10° SSW 23:53:25 43° W 23:59:21 10° NNW
